Temperature
17 17 17 17 16 16 16 16 16 15 15 15 15 15 15 15 14 14 14 14 14 14 14 14 14 14 14 14 14 14 14 14 14 14 14 14 14 14 14 14 15 15 15
17 17 17 17 16 16 16 16 16 16 15 15 15 15 15 15 15 14 14 14 14 14 14 14 14 14 14 14 14 14 14 14 14 14 14 14 14 14 14 14 14 14 15
17 17 17 17 16 16 16 16 16 16 16 15 15 15 15 15 15 15 14 14 14 14 14 14 14 14 14 14 14 14 14 14 14 14 14 14 14 14 14 14 14 14 14
17 17 17 16 16 16 16 16 16 16 16 15 15 15 15 15 15 15 15 14 14 14 14 14 14 14 14 14 14 14 14 13 13 14 14 14 14 14 14 14 14 14 14
17 17 16 16 16 16 16 16 15 15 15 15 15 15 15 15 15 15 15 14 14 14 14 14 14 14 14 14 14 14 14 13 13 13 13 14 14 14 13 13 13 14 13
17 17 16 16 16 16 16 15 15 15 15 15 15 15 15 15 15 15 15 15 14 14 14 14 14 14 14 14 14 14 13 13 13 13 13 13 13 13 13 13 13 13 13
17 17 16 16 16 16 15 15 15 15 15 15 15 15 15 15 15 15 14 14 14 14 14 14 14 14 14 14 14 14 14 13 13 13 13 13 13 13 13 13 13 13 13
17 16 16 16 16 15 15 15 15 15 15 14 14 14 14 15 15 15 14 14 14 14 14 14 14 14 14 14 14 14 14 13 13 13 13 13 13 13 13 13 13 13 13
16 16 16 16 15 15 15 15 15 15 14 14 14 14 14 14 14 14 14 14 14 14 14 14 14 14 14 14 13 13 13 13 13 13 13 13 13 13 13 13 13 13 13
16 15 15 15 15 15 15 15 15 14 14 14 14 14 14 14 14 14 14 14 14 14 14 14 14 14 13 13 13 13 13 13 13 13 13 13 13 13 13 13 13 12 12
15 15 15 15 15 15 14 14 14 14 14 14 14 14 14 14 14 14 14 14 13 13 13 13 13 14 13 13 13 13 13 13 13 13 12 12 12 12 12 12 12 12 12
14 14 14 14 14 14 14 14 14 14 13 13 13 13 14 14 14 14 14 13 13 13 13 13 13 13 13 13 13 13 13 12 12 12 12 12 12 12 12 12 12 12 12
14 14 14 14 14 14 14 13 13 13 13 13 13 13 13 13 13 13 13 13 13 13 13 13 13 13 13 13 13 12 12 12 12 12 12 12 12 12 12 12 12 12 12
13 13 13 13 13 13 13 13 13 13 13 13 13 13 13 13 13 13 13 13 13 12 12 12 12 12 12 12 12 12 12 12 12 12 12 12 12 12 11 11 11 11 11
12 13 13 12 12 12 12 12 12 12 12 12 12 12 12 12 12 12 12 12 12 12 12 12 12 12 12 12 12 12 12 12 12 12 12 12 11 11 11 11 11 11 11
12 12 12 12 12 12 12 12 12 12 12 12 12 12 12 12 12 12 12 12 12 11 11 11 11 11 11 11 11 11 11 11 11 11 11 11 11 11 11 11 11 10 10
11 11 11 11 11 11 11 11 11 11 11 11 11 11 11 11 11 11 11 11 11 11 11 11 11 11 11 11 11 11 11 11 11 11 11 11 11 11 11 10 10 10 10
11 11 10 11 11 10 10 10 10 10 10 10 11 11 11 11 11 11 11 10 11 11 10 10 10 10 10 10 10 11 11 10 10 10 10 10 10 10 10 10 10 10 9
10 10 10 10 10 10 10 10 10 10 10 10 10 10 10 10 10 10 10 10 10 10 10 10 10 10 10 10 10 10 10 10 10 10 10 10 10 10 10 10 10 9 9
9 9 9 9 9 9 9 9 9 9 9 9 9 9 9 9 9 9 9 9 9 9 10 10 9 9 9 9 9 9 9 9 9 9 9 9 9 9 9 9 9 9 9
9 8 8 8 8 9 9 9 9 9 9 8 8 9 8 8 8 8 8 9 9 9 9 9 9 9 9 9 9 9 9 9 9 9 9 9 9 9 9 9 8 8 8
8 8 8 8 8 8 8 8 8 8 8 8 8 8 8 8 8 8 8 8 8 8 8 8 8 8 8 8 8 8 8 8 8 8 9 9 9 8 8 8 8 8 8
7 7 7 7 7 7 7 7 7 7 7 7 7 7 7 7 7 7 7 7 7 8 8 8 8 8 8 8 8 8 8 8 8 8 8 8 8 8 8 8 8 7 7
6 6 6 6 6 6 6 6 6 6 6 7 7 7 7 7 7 7 7 7 7 7 7 7 7 7 7 7 7 7 7 7 7 7 8 8 8 8 7 7 7 7 7
6 6 6 6 6 6 6 6 6 6 6 6 6 6 6 6 6 6 6 6 6 6 6 7 7 7 7 7 7 7 7 7 7 7 7 7 7 7 7 7 7 7 6
5 5 5 5 5 5 5 5 5 5 5 5 5 5 6 6 6 6 6 6 6 6 6 6 6 6 6 6 6 7 7 7 7 7 6 6 6 7 6 6 6 6 6
Wind_Speed
4 3 3 3 2 2 3 2 2 2 2 2 2 2 1 1 1 0 1 1 2 2 2 1 2 2 1 1 1 1 1 1 1 1 0 1 2 2 3 3 5 6 7
2 2 2 2 2 2 2 2 3 3 2 2 2 2 2 2 1 1 2 2 2 2 2 1 1 1 1 1 1 1 1 2 2 2 1 0 1 2 2 2 3 4 4
3 2 1 1 2 2 2 2 3 3 3 3 2 2 2 2 1 2 2 2 2 2 1 1 2 1 1 1 1 1 1 1 1 2 1 1 1 1 2 2 2 2 3
2 2 1 1 1 1 2 2 3 3 3 2 2 2 2 2 2 2 2 3 2 2 1 1 1 1 1 1 1 1 1 1 1 1 2 2 1 2 2 2 1 1 2
2 1 2 2 1 1 2 2 3 3 4 3 3 3 2 2 2 2 3 4 3 2 1 1 1 2 2 1 0 0 0 1 1 2 2 2 2 2 2 2 3 2 1
2 2 2 1 1 1 2 3 3 2 3 4 4 3 3 2 1 1 2 4 4 3 2 2 2 2 3 2 1 1 1 1 2 2 2 2 2 2 2 3 3 2 1
1 1 1 1 1 2 2 3 3 3 4 5 5 4 3 3 4 3 4 3 5 4 3 2 2 1 2 3 3 4 2 2 3 2 2 2 2 2 3 3 3 2 3
1 1 0 1 2 2 3 4 4 3 4 4 5 5 4 4 6 6 5 5 5 5 4 3 3 1 1 1 2 3 3 3 3 3 3 1 0 1 3 4 4 2 1
3 3 2 1 2 2 3 4 4 4 4 4 5 5 5 5 7 7 6 4 5 5 4 3 2 2 2 1 1 2 3 3 3 4 4 4 2 1 2 2 2 3 2
3 4 3 2 3 3 4 4 4 4 5 5 6 6 6 6 7 7 6 4 5 5 4 3 3 3 2 2 2 2 3 3 2 3 3 3 3 3 3 3 4 3 2
3 4 4 4 4 4 3 3 4 4 5 6 6 6 5 6 6 7 7 4 4 4 3 3 3 5 5 4 4 3 4 3 3 4 4 4 3 3 3 2 2 3 3
4 4 4 4 5 4 3 4 4 4 5 6 6 6 5 5 5 7 8 8 6 4 4 3 3 5 6 6 5 6 5 3 2 3 3 4 4 3 3 3 3 3 3
5 5 5 5 4 4 3 4 4 4 4 5 5 5 5 4 4 6 8 8 8 5 4 4 5 6 6 6 8 8 6 4 3 4 4 4 4 4 3 3 3 3 2
6 6 5 5 5 4 4 4 4 4 4 5 5 6 5 5 4 3 3 5 6 5 5 5 5 6 6 7 6 6 5 5 4 5 4 4 3 3 3 3 3 3 2
6 6 6 5 5 4 4 4 5 5 5 6 6 6 6 6 6 6 5 5 5 6 4 3 3 3 5 5 5 5 5 5 5 5 5 5 4 4 3 3 3 3 3
5 5 5 5 5 4 5 6 8 9 11 11 11 10 8 9 10 9 9 9 9 8 5 5 6 6 7 7 6 6 6 6 6 5 5 6 5 5 5 4 4 4 4
7 6 5 5 5 5 5 6 7 8 11 12 13 13 12 12 11 11 11 10 10 8 6 7 7 7 7 6 6 5 5 5 5 5 6 6 6 5 5 5 4 4 4
7 8 7 5 5 6 6 6 7 7 8 7 9 11 12 12 12 11 11 7 6 7 7 7 7 7 6 6 6 5 5 5 5 5 5 5 6 6 5 5 5 5 5
7 6 6 6 6 7 7 7 7 8 8 8 6 6 9 10 10 10 8 6 8 8 8 8 7 6 6 6 6 5 5 5 5 5 5 5 5 5 6 6 6 7 6
6 10 10 7 7 7 7 7 7 7 8 7 7 6 4 4 5 6 6 7 8 8 8 8 7 7 6 6 5 5 5 5 6 5 5 5 5 5 5 6 6 5 5
6 8 11 9 7 7 7 8 8 8 8 8 8 8 8 6 8 8 8 8 8 9 8 7 7 6 6 5 5 6 6 6 5 6 5 5 5 5 5 4 5 5 5
7 8 8 8 8 8 8 8 8 9 9 10 8 8 10 7 7 8 8 8 8 8 7 7 7 7 6 6 7 7 6 6 6 5 5 5 5 5 5 5 5 4 5
8 9 9 8 9 11 10 9 9 9 9 9 9 8 7 7 8 8 8 8 7 7 6 6 6 6 7 7 7 7 8 7 7 6 6 6 6 6 6 6 7 6 6
8 9 10 9 9 9 9 10 9 10 10 10 9 8 8 8 8 9 8 7 7 6 6 6 6 7 8 7 6 7 7 7 7 6 7 6 6 6 5 6 6 7 6
8 9 10 9 9 9 10 10 10 10 10 10 10 9 9 8 8 8 8 7 8 7 7 6 6 6 8 9 8 7 9 10 10 8 6 6 7 7 7 7 6 6 6
9 9 9 9 9 9 9 10 10 10 10 10 9 9 9 8 8 8 7 7 7 7 6 6 7 8 8 8 8 9 10 10 11 11 8 6 7 7 7 6 7 6 7
Wind_Direction
203 205 191 182 180 216 244 255 265 265 273 268 264 269 274 286 283 257 266 287 280 280 274 249 262 271 271 266 240 239 219 166 205 273 256 146 149 149 153 178 166 168 179
205 211 196 174 183 215 252 260 264 258 250 260 268 272 272 272 283 295 263 268 260 281 294 307 292 281 246 252 241 239 227 194 179 217 263 3 154 169 168 180 165 165 164
177 195 204 210 220 224 257 274 278 266 253 248 244 260 279 282 275 276 269 267 260 262 276 290 294 313 267 230 209 222 255 227 177 179 225 229 195 179 168 177 155 150 160
153 177 207 226 237 256 262 262 276 285 279 265 263 259 270 289 293 289 289 284 281 282 275 291 317 7 322 298 224 224 228 231 203 194 217 216 208 195 168 169 165 165 169
168 183 231 234 212 248 282 281 280 293 296 287 275 266 256 264 300 330 321 312 306 302 287 230 178 148 122 97 72 281 256 227 214 211 221 210 210 178 185 181 171 174 175
170 194 220 223 228 241 275 289 286 283 284 284 273 265 258 256 252 258 294 310 309 302 291 258 203 175 173 183 175 143 156 207 226 222 223 207 211 195 178 174 169 163 200
148 171 196 209 229 230 257 270 270 270 270 277 284 276 252 229 220 227 245 266 280 283 282 277 272 222 175 194 216 224 225 234 217 208 216 234 214 200 173 177 178 175 189
19 24 252 246 251 245 251 267 264 264 262 257 272 279 272 248 223 222 237 250 265 268 268 261 248 241 227 213 219 213 206 220 222 212 193 213 245 218 185 183 177 159 140
10 355 348 315 277 260 256 262 264 268 269 259 257 257 261 259 229 221 219 241 255 259 256 255 250 233 247 231 234 232 198 209 195 175 168 163 159 147 130 126 140 143 170
353 336 332 308 276 257 254 261 263 263 266 268 266 255 250 254 238 225 216 233 250 255 246 226 211 213 226 215 223 252 228 221 202 198 197 197 195 192 181 167 164 158 162
333 320 317 305 285 267 253 254 263 265 272 270 272 268 258 254 237 222 213 227 247 264 258 238 216 206 214 229 228 229 237 237 221 205 201 201 196 187 191 186 157 159 168
329 314 303 293 293 294 273 262 262 262 270 270 271 276 271 262 240 229 220 225 242 253 263 257 232 217 217 227 232 235 239 240 233 217 205 198 195 193 186 171 151 137 136
323 313 307 302 299 298 289 277 267 263 264 267 268 270 272 268 244 229 224 231 239 246 256 250 244 238 235 234 230 232 230 221 222 219 210 205 194 183 170 160 150 135 124
314 308 307 308 304 303 298 286 278 267 264 269 272 273 272 263 248 236 238 243 243 249 259 264 253 238 236 235 235 232 222 214 211 218 212 203 183 171 176 173 174 168 157
311 312 311 308 301 297 292 286 283 275 265 265 268 272 275 273 262 241 238 243 238 240 241 248 244 239 232 230 222 216 214 211 217 221 211 199 193 186 190 181 173 172 183
311 313 312 310 304 295 291 293 279 274 275 270 263 266 272 268 276 271 257 249 241 234 231 238 238 233 228 227 223 219 214 213 215 218 211 200 196 194 193 187 182 182 185
312 309 305 303 304 298 293 292 295 293 279 273 271 270 267 268 271 269 266 261 250 228 231 235 235 234 231 228 224 220 220 216 213 215 215 204 194 192 187 188 189 186 185
313 309 306 297 297 296 291 289 288 289 293 287 275 267 267 266 263 263 259 256 256 234 233 236 236 233 230 226 223 220 219 212 211 212 215 208 197 194 192 191 190 188 189
310 304 302 300 295 291 288 284 282 282 284 287 288 282 272 273 272 265 250 244 245 242 239 240 238 233 230 226 223 218 215 212 211 209 210 208 200 196 196 194 189 188 189
298 296 299 295 291 289 288 287 287 286 287 289 287 287 288 284 275 264 249 248 250 248 242 240 238 233 225 222 218 212 211 210 208 209 208 208 198 191 194 192 188 187 191
301 302 302 297 289 290 291 290 291 287 284 285 283 282 277 268 263 262 254 249 249 251 249 241 237 232 223 216 213 213 214 213 207 204 202 207 200 193 191 191 196 188 181
305 300 296 294 294 293 293 291 290 290 289 288 288 285 277 270 267 268 262 256 254 252 248 240 235 230 221 213 211 213 215 215 209 202 202 201 196 193 191 190 188 186 183
301 300 300 298 296 295 294 290 289 288 286 285 284 283 276 271 272 273 271 268 262 259 253 239 236 233 224 215 210 209 212 213 207 196 201 203 197 196 192 191 190 184 184
302 300 299 298 296 294 294 293 292 290 289 287 284 281 276 270 272 273 272 271 264 263 257 244 238 236 230 220 213 208 204 199 194 194 193 201 199 196 194 189 185 181 182
296 296 296 296 295 294 294 293 293 293 292 290 288 285 279 272 270 271 272 267 262 258 254 245 238 233 228 228 220 208 196 189 190 191 193 198 198 194 190 187 184 179 179
290 290 291 291 291 292 294 295 295 295 294 293 291 288 284 280 274 272 274 271 262 255 250 244 239 233 228 222 211 198 189 187 186 189 193 198 196 194 189 188 182 186 182
Height
1516 1516 1517 1517 1516 1516 1516 1516 1515 1515 1514 1514 1513 1512 1512 1511 1510 1510 1509 1508 1507 1507 1506 1506 1505 1505 1505 1506 1506 1507 1507 1507 1507 1508 1508 1509 1509 1510 1511 1512 1512 1514 1515
1515 1515 1516 1515 1515 1515 1515 1514 1514 1514 1513 1513 1512 1512 1511 1511 1510 1509 1508 1508 1507 1506 1506 1505 1505 1504 1504 1504 1504 1505 1505 1506 1506 1506 1507 1507 1508 1508 1509 1510 1511 1512 1513
1513 1513 1514 1514 1514 1513 1513 1513 1512 1512 1512 1511 1511 1510 1510 1509 1509 1508 1507 1507 1506 1505 1505 1504 1504 1503 1503 1503 1503 1503 1503 1504 1504 1504 1505 1505 1506 1507 1507 1508 1509 1510 1511
1512 1512 1512 1512 1512 1512 1511 1511 1510 1510 1510 1510 1509 1509 1508 1508 1507 1507 1506 1505 1505 1504 1504 1503 1502 1502 1501 1501 1501 1501 1501 1502 1502 1502 1503 1503 1504 1505 1505 1506 1507 1508 1509
1511 1511 1510 1511 1510 1510 1509 1509 1509 1508 1508 1507 1507 1507 1506 1506 1505 1505 1504 1504 1503 1503 1502 1501 1501 1500 1500 1500 1499 1499 1499 1500 1500 1500 1501 1501 1502 1502 1503 1504 1505 1506 1507
1509 1509 1509 1509 1509 1508 1507 1507 1507 1506 1505 1505 1505 1505 1504 1504 1503 1503 1502 1502 1501 1501 1500 1500 1499 1498 1498 1497 1497 1497 1497 1498 1498 1498 1499 1499 1499 1500 1501 1501 1502 1503 1504
1508 1507 1507 1507 1506 1506 1505 1505 1504 1504 1503 1503 1502 1502 1501 1501 1501 1500 1500 1499 1499 1498 1498 1497 1497 1496 1496 1495 1495 1495 1495 1495 1496 1496 1496 1497 1497 1497 1498 1499 1500 1501 1501
1506 1506 1505 1505 1504 1503 1503 1502 1501 1501 1500 1500 1499 1499 1498 1498 1498 1497 1497 1496 1495 1495 1495 1495 1494 1494 1493 1493 1493 1492 1492 1492 1493 1493 1493 1494 1494 1495 1495 1496 1497 1498 1499
1505 1504 1503 1502 1502 1501 1500 1499 1498 1498 1497 1496 1496 1495 1495 1494 1494 1494 1493 1492 1492 1491 1491 1491 1491 1490 1490 1490 1490 1489 1489 1489 1490 1490 1490 1491 1491 1492 1492 1493 1494 1495 1496
1503 1502 1501 1500 1499 1498 1497 1496 1495 1495 1494 1493 1492 1492 1491 1490 1490 1490 1489 1489 1488 1487 1487 1487 1487 1487 1487 1487 1487 1486 1486 1486 1487 1487 1487 1488 1488 1489 1490 1490 1491 1492 1493
1500 1499 1498 1497 1496 1495 1494 1493 1492 1491 1490 1489 1489 1488 1487 1487 1486 1486 1485 1485 1484 1483 1483 1483 1483 1483 1483 1483 1483 1483 1482 1483 1483 1484 1484 1484 1485 1485 1486 1487 1488 1489 1490
1498 1497 1495 1494 1493 1492 1491 1489 1488 1487 1486 1485 1484 1483 1483 1482 1482 1481 1480 1480 1480 1479 1479 1478 1478 1478 1478 1478 1478 1478 1479 1479 1479 1480 1480 1481 1481 1482 1483 1484 1485 1486 1487
1495 1494 1493 1491 1490 1489 1487 1486 1484 1483 1482 1481 1480 1479 1478 1477 1476 1476 1475 1475 1474 1474 1474 1473 1473 1473 1472 1472 1473 1473 1474 1474 1474 1475 1475 1476 1477 1478 1479 1480 1481 1483 1484
1492 1491 1489 1488 1486 1485 1484 1482 1481 1480 1478 1477 1476 1474 1473 1472 1471 1470 1470 1469 1469 1468 1468 1467 1467 1467 1467 1467 1467 1468 1468 1469 1469 1470 1471 1472 1473 1474 1475 1476 1477 1478 1480
1490 1488 1487 1485 1483 1481 1480 1479 1477 1475 1475 1473 1471 1470 1469 1467 1466 1465 1464 1463 1463 1463 1462 1461 1461 1461 1461 1461 1461 1461 1462 1463 1464 1464 1466 1467 1468 1469 1471 1472 1473 1474 1475
1487 1485 1483 1481 1479 1477 1475 1473 1472 1471 1469 1468 1466 1465 1463 1462 1461 1459 1458 1457 1456 1456 1455 1454 1454 1454 1454 1454 1455 1455 1456 1457 1457 1458 1460 1461 1462 1464 1465 1467 1468 1469 1470
1483 1481 1479 1477 1475 1473 1471 1468 1466 1464 1463 1462 1460 1458 1457 1455 1454 1452 1451 1450 1449 1449 1448 1447 1447 1447 1447 1448 1448 1449 1449 1450 1451 1452 1453 1454 1456 1458 1460 1461 1462 1464 1465
1479 1477 1475 1473 1470 1468 1466 1464 1461 1459 1456 1454 1453 1452 1450 1448 1446 1445 1444 1443 1441 1440 1440 1439 1439 1440 1440 1441 1441 1441 1442 1443 1444 1445 1446 1448 1450 1451 1453 1455 1457 1458 1459
1474 1472 1470 1468 1465 1463 1460 1458 1456 1454 1451 1448 1446 1444 1443 1441 1439 1438 1436 1435 1433 1432 1432 1432 1432 1432 1433 1433 1434 1435 1435 1436 1437 1438 1439 1441 1443 1445 1446 1448 1450 1452 1454
1469 1467 1465 1462 1460 1457 1455 1453 1450 1448 1445 1443 1440 1438 1436 1434 1431 1429 1428 1427 1425 1424 1424 1424 1424 1425 1425 1426 1427 1427 1428 1429 1430 1431 1432 1433 1435 1437 1439 1442 1444 1445 1447
1464 1462 1459 1457 1454 1452 1450 1447 1445 1442 1439 1437 1434 1432 1430 1427 1424 1422 1421 1419 1418 1416 1416 1416 1416 1416 1417 1418 1419 1420 1420 1421 1422 1423 1425 1426 1428 1430 1433 1435 1437 1439 1441
1459 1456 1454 1451 1449 1446 1443 1441 1438 1436 1433 1430 1427 1425 1423 1420 1418 1415 1413 1411 1410 1409 1408 1408 1408 1408 1409 1410 1411 1412 1413 1414 1415 1416 1418 1419 1421 1424 1426 1428 1430 1432 1434
1453 1451 1448 1445 1443 1440 1437 1434 1431 1428 1426 1423 1420 1418 1415 1413 1410 1408 1406 1404 1402 1401 1401 1400 1400 1400 1400 1401 1403 1404 1405 1406 1408 1409 1411 1412 1414 1416 1419 1421 1423 1425 1428
1448 1445 1442 1439 1436 1433 1430 1427 1424 1421 1418 1415 1413 1410 1407 1405 1402 1400 1398 1396 1394 1393 1392 1392 1392 1392 1392 1393 1394 1395 1397 1399 1401 1402 1404 1406 1408 1410 1412 1414 1416 1419 1421
1441 1439 1436 1433 1430 1427 1424 1420 1417 1414 1411 1408 1406 1403 1400 1397 1395 1392 1390 1388 1386 1385 1384 1384 1384 1384 1385 1385 1386 1387 1388 1390 1393 1395 1397 1399 1401 1403 1406 1408 1410 1412 1415
1435 1432 1429 1426 1423 1420 1417 1413 1410 1407 1404 1401 1398 1396 1393 1390 1387 1385 1383 1380 1378 1377 1377 1376 1376 1376 1376 1377 1378 1379 1381 1382 1384 1387 1389 1391 1394 1396 1399 1401 1403 1406 1408